Skip Page Navigation
NASA JPL Caltech
NASA Logo - Jet Propulsion Laboratory + View the NASA Portal
+ Center for Near-Earth Object Studies
JPL Home Earth Solar System Stars & Galaxies Technology
JPL Solar System Dynamics
BODIES ORBITS EPHEMERIDES TOOLS PHYSICAL DATA DISCOVERY FAQ SITE MAP
IMPORTANT: The SSD Announcement email list is now available. Major changes are coming in the near future, including possible hostname and/or URL changes. To be notified of such changes, subscribe to this email list.

Please visit this page for more details.


JPL Small-Body Database Browser
Search: [ help ]  
126719 (2002 CC249)
Classification: TransNeptunian Object          SPK-ID: 2126719
Ephemeris | Orbit Diagram | Orbital Elements | Mission Design | Physical Parameters | Discovery Circumstances ]

[ show orbit diagram ]
Orbital Elements at Epoch 2458600.5 (2019-Apr-27.0) TDB
Reference: JPL 6 (heliocentric ecliptic J2000)
 Element Value Uncertainty (1-sigma)   Units 
e .1955305988811224 5.8487e-05  
a 47.22947200170501 0.00348 au
q 37.99466505637243 0.00079143 au
i .8330211191588923 7.0023e-05 deg
node 248.6883746130725 0.0094671 deg
peri 308.0857168245033 0.021573 deg
M 357.8752792956323 0.012478 deg
tp 2459300.208922042056
(2021-Mar-26.70892204)
4.133 TDB
period 118554.5052661864
324.58
13.103
0.03587
d
yr
n .003036577978978565 3.3561e-07 deg/d
Q 56.4642789470376 0.0041604 au
  Orbit Determination Parameters
   # obs. used (total)      62  
   data-arc span      5206 days (14.25 yr)  
   first obs. used      2001-02-20  
   last obs. used      2015-05-24  
   planetary ephem.      DE431  
   SB-pert. ephem.      SB431-N16  
   condition code      3  
   norm. resid. RMS      .47273  
   source      ORB  
   producer      Otto Matic  
   solution date      2017-Apr-11 10:48:54  

Additional Information
 Earth MOID = 36.9939 au 
 Jupiter MOID = 32.5391 au 
 T_jup = 6.019 
[ show covariance matrix ]

Ephemeris | Orbit Diagram | Orbital Elements | Mission Design | Physical Parameters | Discovery Circumstances ]

Physical Parameter Table
Parameter Symbol Value Units Sigma Reference Notes
absolute magnitude H 6.6   n/a MPO385553  
rotation period rot_per 11.87 h n/a LCDB (Rev. 2019-January); Warner et al., 2009 Published Reference List:
[Thirouin, A.; Sheppard, S.S. (2017) ArXiv:1710.10541]

126719 (2002 CC249)          Discovered 2002-Feb-08 by Buie, M. W. at Kitt Peak
Reference: 20060314/Numbers.arcLast Updated: 2006-03-23
Ephemeris | Orbit Diagram | Orbital Elements | Mission Design | Physical Parameters | Discovery Circumstances ]
ABOUT SSD CREDITS/AWARDS PRIVACY/COPYRIGHT GLOSSARY LINKS
FirstGov
(server date/time)  
NASA Home Page
Site Manager:   Ryan S. Park
Webmaster  Alan B. Chamberlin